Preston, Minnesota, United States (55965)
Lat: 43.67N, Lon: 92.08W
Wx Zone: MNZ095
Local Info
Past Weather Observations for Today

NOTE: This archive is for the closest National Weather Service station to Preston. Information may differ from the station used for current weather conditions.

Click here for Long-term Archive

Time Weather Temperature Dewpoint Humidity Pressure Winds Precip Visibility
15:34
Clear
68°F / 20°C 36°F / 2°C 30% 30.01 in
(1016 mb)
SSW 8.1 mph
(SSW 13 kph)
- 10SM
15:15
Clear
68°F / 20°C 34°F / 1°C 28% 30.01 in
(1016 mb)
SSW 3.5 mph
(SSW 6 kph)
- 10SM
14:55
Clear
66°F / 19°C 36°F / 2°C 32% 30.01 in
(1016 mb)
W 4.6 mph
(W 7 kph)
- 10SM
14:35
Partly Cloudy
66°F / 19°C 34°F / 1°C 30% 30.04 in
(1017 mb)
SW 3.5 mph
(SW 6 kph)
- 10SM
14:14
Partly Cloudy
64°F / 18°C 36°F / 2°C 34% 30.04 in
(1017 mb)
NW 10.4 mph
(NW 17 kph)
- 10SM
13:55
Mostly Cloudy
64°F / 18°C 34°F / 1°C 32% 30.04 in
(1017 mb)
NW 8.1 mph
(NW 13 kph)
- 10SM
13:35
Mostly Cloudy
63°F / 17°C 32°F / 0°C 32% 30.04 in
(1017 mb)
NNW 6.9 mph
(NNW 11 kph)
- 10SM
13:15
Mostly Cloudy
63°F / 17°C 30°F / -1°C 30% 30.06 in
(1018 mb)
NW 3.5 mph
(NW 6 kph)
- 10SM
12:55
Mostly Cloudy
61°F / 16°C 32°F / 0°C 34% 30.06 in
(1018 mb)
NW 4.6 mph
(NW 7 kph)
- 10SM
12:34
Mostly Cloudy
61°F / 16°C 30°F / -1°C 31% 30.06 in
(1018 mb)
NW 8.1 mph
(NW 13 kph)
- 7SM
12:15
Partly Cloudy
61°F / 16°C 30°F / -1°C 31% 30.06 in
(1018 mb)
NW 3.5 mph
(NW 6 kph)
- 10SM
11:55
Clear
61°F / 16°C 32°F / 0°C 34% 30.06 in
(1018 mb)
W 6.9 mph
(W 11 kph)
- 10SM
11:35
Clear
59°F / 15°C 32°F / 0°C 36% 30.06 in
(1018 mb)
WNW 4.6 mph
(WNW 7 kph)
- 10SM
11:15
Clear
59°F / 15°C 30°F / -1°C 34% 30.06 in
(1018 mb)
WNW 4.6 mph
(WNW 7 kph)
- 10SM
10:55
Clear
57°F / 14°C 30°F / -1°C 36% 30.09 in
(1019 mb)
W 3.5 mph
(W 6 kph)
- 10SM
10:35
Clear
57°F / 14°C 30°F / -1°C 36% 30.09 in
(1019 mb)
W 4.6 mph
(W 7 kph)
- 10SM
10:15
Partly Cloudy
55°F / 13°C 34°F / 1°C 44% 30.09 in
(1019 mb)
SSE 3.5 mph
(SSE 6 kph)
- 10SM
09:55
Overcast
55°F / 13°C 34°F / 1°C 44% 30.09 in
(1019 mb)
SSW 4.6 mph
(SSW 7 kph)
- 10SM
09:35
Mostly Cloudy
55°F / 13°C 34°F / 1°C 44% 30.09 in
(1019 mb)
W 3.5 mph
(W 6 kph)
- 10SM
09:15
Overcast
54°F / 12°C 34°F / 1°C 47% 30.09 in
(1019 mb)
Calm - 10SM
08:55
Mostly Cloudy
54°F / 12°C 36°F / 2°C 51% 30.09 in
(1019 mb)
Calm - 10SM
08:35
Partly Cloudy
50°F / 10°C 32°F / 0°C 50% 30.12 in
(1020 mb)
Calm - 10SM
08:15
Mostly Cloudy
48°F / 9°C 32°F / 0°C 54% 30.09 in
(1019 mb)
Calm - 10SM
07:55
Overcast
48°F / 9°C 34°F / 1°C 58% 30.09 in
(1019 mb)
Calm - 10SM
07:35
Mostly Cloudy
46°F / 8°C 32°F / 0°C 57% 30.09 in
(1019 mb)
Calm - 10SM
07:15
Clear
46°F / 8°C 32°F / 0°C 57% 30.09 in
(1019 mb)
Calm - 10SM
06:55
Clear
45°F / 7°C 32°F / 0°C 61% 30.06 in
(1018 mb)
Calm - 10SM
06:35
Clear
43°F / 6°C 32°F / 0°C 66% 30.06 in
(1018 mb)
Calm - 10SM
06:15
Clear
41°F / 5°C 30°F / -1°C 66% 30.06 in
(1018 mb)
Calm - 10SM
05:55
Clear
39°F / 4°C 27°F / -3°C 61% 30.06 in
(1018 mb)
Calm - 10SM
05:35
Clear
41°F / 5°C 25°F / -4°C 53% 30.06 in
(1018 mb)
Calm - 10SM
05:15
Clear
39°F / 4°C 25°F / -4°C 56% 30.04 in
(1017 mb)
NE 4.6 mph
(NE 7 kph)
- 7SM
04:55
Clear
41°F / 5°C 25°F / -4°C 53% 30.04 in
(1017 mb)
Calm - 10SM
04:34
Clear
41°F / 5°C 25°F / -4°C 53% 30.04 in
(1017 mb)
Calm - 10SM
04:15
Clear
41°F / 5°C 25°F / -4°C 53% 30.04 in
(1017 mb)
NNW 3.5 mph
(NNW 6 kph)
- 10SM
03:55
Clear
41°F / 5°C 25°F / -4°C 53% 30.04 in
(1017 mb)
NNW 3.5 mph
(NNW 6 kph)
- 10SM
03:34
Clear
41°F / 5°C 25°F / -4°C 53% 30.04 in
(1017 mb)
NW 4.6 mph
(NW 7 kph)
- 10SM
03:15
Clear
41°F / 5°C 25°F / -4°C 53% 30.04 in
(1017 mb)
NNW 3.5 mph
(NNW 6 kph)
- 10SM
02:55
Clear
41°F / 5°C 25°F / -4°C 53% 30.04 in
(1017 mb)
Calm - 10SM
02:35
Clear
41°F / 5°C 27°F / -3°C 57% 30.01 in
(1016 mb)
NNW 3.5 mph
(NNW 6 kph)
- 10SM
02:15
Clear
43°F / 6°C 25°F / -4°C 49% 30.01 in
(1016 mb)
Calm - 10SM
01:55
Clear
43°F / 6°C 25°F / -4°C 49% 30.01 in
(1016 mb)
Calm - 10SM
01:35
Clear
41°F / 5°C 25°F / -4°C 53% 30.01 in
(1016 mb)
NE 3.5 mph
(NE 6 kph)
- 10SM
01:15
Clear
43°F / 6°C 25°F / -4°C 49% 30.01 in
(1016 mb)
NE 4.6 mph
(NE 7 kph)
- 10SM
00:55
Clear
43°F / 6°C 25°F / -4°C 49% 30.01 in
(1016 mb)
NE 3.5 mph
(NE 6 kph)
- 10SM
00:35
Clear
45°F / 7°C 25°F / -4°C 46% 30.01 in
(1016 mb)
NE 3.5 mph
(NE 6 kph)
- 10SM
00:15
Clear
45°F / 7°C 23°F / -5°C 42% 30.01 in
(1016 mb)
NNE 3.5 mph
(NNE 6 kph)
- 10SM
Time Weather Temperature Dewpoint Humidity Pressure Winds Precip Visibility


Weather for websites

WeatherForYou.com, LLC is not responsible for any damages or problems caused by this service. Current weather conditions are obtained from the closest station including government and personal stations which may have varying degrees of accuracy. Weather forecasts are derived from the NOAA NDFD. Like all things, this site belongs to Jesus Christ... He just trusts us to maintain it. If you have any questions or comments email webmaster@weatherforyou.com

Copyright © 2016, WeatherForYou.com LLC. All rights reserved.